Time,TemperatureF,DewpointF,PressureIn,WindDirection,WindDirectionDegrees,WindSpeedMPH,WindSpeedGustMPH,Humidity,HourlyPrecipIn,Conditions,Clouds,dailyrainin,SoftwareType,DateUTC
2013-07-10 00:01:00,66.9,59.5,30.46,ENE,78,1.2,1.2,77,0.00,CLR,FEW,0.00,WeatherDisplay:10.37,2013-07-09 23:01:00,
2013-07-10 00:06:00,67.1,59.6,30.46,ENE,78,0.0,0.7,77,0.00,CLR,FEW,0.00,WeatherDisplay:10.37,2013-07-09 23:06:00,
2013-07-10 00:11:00,66.6,59.5,30.46,ENE,78,0.0,0.7,78,0.00,CLR,FEW,0.00,WeatherDisplay:10.37,2013-07-09 23:11:00,
2013-07-10 00:16:00,66.7,59.7,30.46,ENE,78,2.3,2.3,78,0.00,CLR,FEW,0.00,WeatherDisplay:10.37,2013-07-09 23:16:00,
2013-07-10 00:21:00,66.6,59.5,30.46,ENE,78,1.2,1.2,78,0.00,CLR,FEW,0.00,WeatherDisplay:10.37,2013-07-09 23:21:00,
2013-07-10 00:26:00,66.4,59.3,30.46,ENE,78,0.0,0.2,78,0.00,CLR,FEW,0.00,WeatherDisplay:10.37,2013-07-09 23:26:00,
2013-07-10 00:31:00,66.4,59.3,30.46,ENE,78,2.3,2.3,78,0.00,CLR,FEW,0.00,WeatherDisplay:10.37,2013-07-09 23:31:00,
2013-07-10 00:36:00,66.0,59.3,30.46,East,100,2.3,2.3,79,0.00,CLR,FEW,0.00,WeatherDisplay:10.37,2013-07-09 23:36:00,
2013-07-10 00:41:00,65.8,59.1,30.44,ENE,78,0.0,0.5,79,0.00,CLR,FEW,0.00,WeatherDisplay:10.37,2013-07-09 23:41:00,
2013-07-10 00:46:00,65.7,59.0,30.44,East,100,0.0,0.4,79,0.00,CLR,FEW,0.00,WeatherDisplay:10.37,2013-07-09 23:46:00,
2013-07-10 00:51:00,65.7,59.3,30.44,East,100,0.0,0.0,80,0.00,CLR,FEW,0.00,WeatherDisplay:10.37,2013-07-09 23:51:00,
2013-07-10 00:56:00,65.3,59.0,30.44,East,100,0.0,0.0,80,0.00,CLR,FEW,0.00,WeatherDisplay:10.37,2013-07-09 23:56:00,
2013-07-10 01:01:00,64.9,58.6,30.44,SE,145,0.0,0.0,80,0.00,CLR,FEW,0.00,WeatherDisplay:10.37,2013-07-10 00:01:00,
2013-07-10 01:06:00,64.9,59.0,30.44,SE,145,0.0,0.0,81,0.00,CLR,FEW,0.00,WeatherDisplay:10.37,2013-07-10 00:06:00,
2013-07-10 01:11:00,64.6,58.6,30.44,SE,145,0.0,0.0,81,0.00,CLR,FEW,0.00,WeatherDisplay:10.37,2013-07-10 00:11:00,
2013-07-10 01:16:00,64.6,58.6,30.44,SE,145,0.0,0.0,81,0.00,CLR,FEW,0.00,WeatherDisplay:10.37,2013-07-10 00:16:00,
2013-07-10 01:21:00,64.2,58.6,30.42,SE,145,0.0,0.0,82,0.00,CLR,FEW,0.00,WeatherDisplay:10.37,2013-07-10 00:21:00,
2013-07-10 01:26:00,64.2,58.6,30.42,WSW,258,0.0,0.0,82,0.00,CLR,FEW,0.00,WeatherDisplay:10.37,2013-07-10 00:26:00,
2013-07-10 01:31:00,63.9,58.6,30.42,WSW,258,0.0,0.0,83,0.00,CLR,FEW,0.00,WeatherDisplay:10.37,2013-07-10 00:31:00,
2013-07-10 01:36:00,63.7,58.4,30.42,WSW,258,0.0,0.0,83,0.00,CLR,FEW,0.00,WeatherDisplay:10.37,2013-07-10 00:36:00,
2013-07-10 01:41:00,63.7,58.4,30.44,WSW,258,0.0,0.0,83,0.00,CLR,FEW,0.00,WeatherDisplay:10.37,2013-07-10 00:41:00,
2013-07-10 01:46:00,63.5,58.2,30.44,WSW,258,0.0,0.0,83,0.00,CLR,FEW,0.00,WeatherDisplay:10.37,2013-07-10 00:46:00,
2013-07-10 01:51:00,63.5,58.2,30.44,SE,145,0.0,0.0,83,0.00,CLR,FEW,0.00,WeatherDisplay:10.37,2013-07-10 00:51:00,
2013-07-10 01:56:00,63.1,58.2,30.44,SE,145,0.0,0.0,84,0.00,CLR,FEW,0.00,WeatherDisplay:10.37,2013-07-10 00:56:00,
2013-07-10 02:01:00,63.0,58.0,30.43,SE,145,0.0,0.0,84,0.00,CLR,FEW,0.00,WeatherDisplay:10.37,2013-07-10 01:01:00,
2013-07-10 02:06:00,63.0,58.0,30.43,SE,145,0.0,0.0,84,0.00,CLR,FEW,0.00,WeatherDisplay:10.37,2013-07-10 01:06:00,
2013-07-10 02:11:00,62.8,57.9,30.43,SE,145,0.0,0.0,84,0.00,CLR,FEW,0.00,WeatherDisplay:10.37,2013-07-10 01:11:00,
2013-07-10 02:16:00,62.8,57.9,30.43,SE,145,0.0,0.0,84,0.00,CLR,FEW,0.00,WeatherDisplay:10.37,2013-07-10 01:16:00,
2013-07-10 02:21:00,62.4,57.8,30.43,NW,325,0.0,0.0,85,0.00,CLR,FEW,0.00,WeatherDisplay:10.37,2013-07-10 01:21:00,
2013-07-10 02:26:00,62.8,58.2,30.43,ENE,78,0.0,0.0,85,0.00,CLR,FEW,0.00,WeatherDisplay:10.37,2013-07-10 01:26:00,
2013-07-10 02:27:00,62.8,58.2,30.43,ENE,78,0.0,0.0,85,0.00,CLR,FEW,0.00,WeatherDisplay:10.37,2013-07-10 01:27:00,
2013-07-10 02:33:00,62.4,57.8,30.43,ENE,78,0.0,0.0,85,0.00,CLR,FEW,0.00,WeatherDisplay:10.37,2013-07-10 01:33:00,
2013-07-10 02:38:00,62.2,57.7,30.43,West,280,0.0,0.0,85,0.00,CLR,FEW,0.00,WeatherDisplay:10.37,2013-07-10 01:38:00,
2013-07-10 02:43:00,62.4,58.2,30.42,West,280,0.0,0.0,86,0.00,CLR,FEW,0.00,WeatherDisplay:10.37,2013-07-10 01:43:00,
2013-07-10 02:48:00,62.4,58.2,30.42,WNW,302,2.1,2.1,86,0.00,CLR,FEW,0.00,WeatherDisplay:10.37,2013-07-10 01:48:00,
2013-07-10 02:53:00,62.6,58.4,30.42,NW,325,0.0,0.4,86,0.00,CLR,FEW,0.00,WeatherDisplay:10.37,2013-07-10 01:53:00,
2013-07-10 02:58:00,62.8,58.5,30.42,WSW,258,1.2,1.2,86,0.00,CLR,FEW,0.00,WeatherDisplay:10.37,2013-07-10 01:58:00,
2013-07-10 03:03:00,62.8,58.5,30.43,West,280,0.0,0.4,86,0.00,CLR,FEW,0.00,WeatherDisplay:10.37,2013-07-10 02:03:00,
2013-07-10 03:08:00,62.8,58.5,30.43,West,280,0.0,0.4,86,0.00,CLR,FEW,0.00,WeatherDisplay:10.37,2013-07-10 02:08:00,
2013-07-10 03:13:00,62.4,58.2,30.43,WSW,258,1.2,1.2,86,0.00,CLR,FEW,0.00,WeatherDisplay:10.37,2013-07-10 02:13:00,
2013-07-10 03:18:00,62.4,58.2,30.43,WNW,302,3.5,3.5,86,0.00,CLR,FEW,0.00,WeatherDisplay:10.37,2013-07-10 02:18:00,
2013-07-10 03:23:00,62.4,58.2,30.42,West,280,2.3,2.3,86,0.00,CLR,FEW,0.00,WeatherDisplay:10.37,2013-07-10 02:23:00,
2013-07-10 03:28:00,62.4,58.2,30.42,NE,55,1.2,1.2,86,0.00,CLR,FEW,0.00,WeatherDisplay:10.37,2013-07-10 02:28:00,
2013-07-10 03:33:00,62.1,57.8,30.42,WSW,258,2.3,2.3,86,0.00,CLR,FEW,0.00,WeatherDisplay:10.37,2013-07-10 02:33:00,
2013-07-10 03:38:00,62.1,58.1,30.42,NW,325,2.3,2.3,87,0.00,CLR,FEW,0.00,WeatherDisplay:10.37,2013-07-10 02:38:00,
2013-07-10 03:43:00,62.1,58.1,30.42,WSW,258,0.0,1.1,87,0.00,CLR,FEW,0.00,WeatherDisplay:10.37,2013-07-10 02:43:00,
2013-07-10 03:48:00,61.9,58.0,30.42,WSW,258,2.3,2.3,87,0.00,CLR,FEW,0.00,WeatherDisplay:10.37,2013-07-10 02:48:00,
2013-07-10 03:53:00,62.1,58.1,30.42,WSW,258,1.2,1.2,87,0.00,CLR,FEW,0.00,WeatherDisplay:10.37,2013-07-10 02:53:00,
2013-07-10 03:58:00,61.7,57.8,30.42,West,280,0.0,0.5,87,0.00,CLR,FEW,0.00,WeatherDisplay:10.37,2013-07-10 02:58:00,
2013-07-10 04:03:00,61.5,57.6,30.41,WSW,258,2.3,2.3,87,0.00,CLR,FEW,0.00,WeatherDisplay:10.37,2013-07-10 03:03:00,
2013-07-10 04:08:00,61.5,57.6,30.41,WSW,258,1.2,1.2,87,0.00,CLR,FEW,0.00,WeatherDisplay:10.37,2013-07-10 03:08:00,
2013-07-10 04:13:00,61.5,57.6,30.41,West,280,1.2,1.2,87,0.00,CLR,FEW,0.00,WeatherDisplay:10.37,2013-07-10 03:13:00,
2013-07-10 04:18:00,61.3,57.8,30.41,WNW,302,3.5,3.5,88,0.00,CLR,FEW,0.00,WeatherDisplay:10.37,2013-07-10 03:18:00,
2013-07-10 04:23:00,61.3,57.8,30.42,WSW,258,0.0,1.1,88,0.00,CLR,FEW,0.00,WeatherDisplay:10.37,2013-07-10 03:23:00,
2013-07-10 04:28:00,61.3,57.8,30.42,West,280,1.2,1.2,88,0.00,CLR,FEW,0.00,WeatherDisplay:10.37,2013-07-10 03:28:00,
2013-07-10 04:33:00,61.3,57.8,30.42,NW,325,1.2,1.2,88,0.00,CLR,FEW,0.00,WeatherDisplay:10.37,2013-07-10 03:33:00,
2013-07-10 04:38:00,61.2,57.6,30.42,NW,325,0.0,0.2,88,0.00,CLR,FEW,0.00,WeatherDisplay:10.37,2013-07-10 03:38:00,
2013-07-10 04:43:00,61.0,57.4,30.41,WNW,302,1.6,1.6,88,0.00,CLR,FEW,0.00,WeatherDisplay:10.37,2013-07-10 03:43:00,
2013-07-10 04:48:00,61.0,57.4,30.41,ESE,122,1.2,1.2,88,0.00,CLR,FEW,0.00,WeatherDisplay:10.37,2013-07-10 03:48:00,
2013-07-10 04:53:00,60.8,57.2,30.41,WSW,258,0.0,0.7,88,0.00,CLR,FEW,0.00,WeatherDisplay:10.37,2013-07-10 03:53:00,
2013-07-10 04:58:00,60.8,57.2,30.41,West,280,1.2,1.2,88,0.00,CLR,FEW,0.00,WeatherDisplay:10.37,2013-07-10 03:58:00,
2013-07-10 05:01:00,60.8,57.2,30.41,West,280,2.3,2.3,88,0.00,CLR,FEW,0.00,WeatherDisplay:10.37,2013-07-10 04:01:00,
2013-07-10 05:06:00,60.8,57.2,30.41,West,280,3.5,3.5,88,0.00,CLR,FEW,0.00,WeatherDisplay:10.37,2013-07-10 04:06:00,
2013-07-10 05:11:00,60.8,57.2,30.41,West,280,1.4,1.4,88,0.00,CLR,FEW,0.00,WeatherDisplay:10.37,2013-07-10 04:11:00,
2013-07-10 05:16:00,60.8,57.2,30.41,WSW,258,0.0,0.4,88,0.00,CLR,FEW,0.00,WeatherDisplay:10.37,2013-07-10 04:16:00,
2013-07-10 05:21:00,60.6,57.0,30.41,WNW,302,0.0,0.2,88,0.00,CLR,FEW,0.00,WeatherDisplay:10.37,2013-07-10 04:21:00,
2013-07-10 05:26:00,60.4,56.9,30.41,ESE,122,1.2,1.2,88,0.00,CLR,FEW,0.00,WeatherDisplay:10.37,2013-07-10 04:26:00,
2013-07-10 05:31:00,60.6,57.0,30.41,WSW,258,0.0,0.4,88,0.00,CLR,FEW,0.00,WeatherDisplay:10.37,2013-07-10 04:31:00,
2013-07-10 05:36:00,60.3,56.7,30.41,WSW,258,0.0,0.0,88,0.00,CLR,FEW,0.00,WeatherDisplay:10.37,2013-07-10 04:36:00,
2013-07-10 05:41:00,60.1,56.5,30.40,WSW,258,0.0,0.0,88,0.00,CLR,FEW,0.00,WeatherDisplay:10.37,2013-07-10 04:41:00,
2013-07-10 05:46:00,60.1,56.5,30.40,West,280,0.0,0.0,88,0.00,CLR,FEW,0.00,WeatherDisplay:10.37,2013-07-10 04:46:00,
2013-07-10 05:51:00,60.1,56.5,30.40,WSW,258,1.2,1.2,88,0.00,CLR,FEW,0.00,WeatherDisplay:10.37,2013-07-10 04:51:00,
2013-07-10 05:56:00,60.1,56.8,30.40,West,280,1.2,1.2,89,0.00,CLR,FEW,0.00,WeatherDisplay:10.37,2013-07-10 04:56:00,
2013-07-10 06:01:00,60.1,56.8,30.40,WSW,258,0.0,0.7,89,0.00,CLR,FEW,0.00,WeatherDisplay:10.37,2013-07-10 05:01:00,
2013-07-10 06:06:00,60.3,57.0,30.40,ESE,122,0.0,0.6,89,0.00,CLR,FEW,0.00,WeatherDisplay:10.37,2013-07-10 05:06:00,
2013-07-10 06:11:00,60.3,57.0,30.40,ESE,122,0.0,0.6,89,0.00,CLR,FEW,0.00,WeatherDisplay:10.37,2013-07-10 05:11:00,
2013-07-10 06:16:00,60.3,57.0,30.40,WNW,302,2.3,2.3,89,0.00,CLR,FEW,0.00,WeatherDisplay:10.37,2013-07-10 05:16:00,
2013-07-10 06:21:00,60.6,57.4,30.40,West,280,1.3,1.3,89,0.00,CLR,FEW,0.00,WeatherDisplay:10.37,2013-07-10 05:21:00,
2013-07-10 06:26:00,60.8,57.5,30.40,WNW,302,3.7,3.7,89,0.00,CLR,FEW,0.00,WeatherDisplay:10.37,2013-07-10 05:26:00,
2013-07-10 06:31:00,61.0,57.7,30.40,West,280,3.5,3.5,89,0.00,CLR,FEW,0.00,WeatherDisplay:10.37,2013-07-10 05:31:00,
2013-07-10 06:36:00,61.3,57.8,30.40,East,100,2.3,2.3,88,0.00,CLR,FEW,0.00,WeatherDisplay:10.37,2013-07-10 05:36:00,
2013-07-10 06:41:00,61.2,57.6,30.40,NW,325,2.3,2.3,88,0.00,CLR,FEW,0.00,WeatherDisplay:10.37,2013-07-10 05:41:00,
2013-07-10 06:46:00,61.5,57.9,30.40,West,280,2.3,2.3,88,0.00,CLR,FEW,0.00,WeatherDisplay:10.37,2013-07-10 05:46:00,
2013-07-10 06:51:00,61.7,58.1,30.40,East,100,1.2,1.2,88,0.00,CLR,FEW,0.00,WeatherDisplay:10.37,2013-07-10 05:51:00,
2013-07-10 06:56:00,62.2,58.3,30.40,WNW,302,3.5,3.5,87,0.00,CLR,FEW,0.00,WeatherDisplay:10.37,2013-07-10 05:56:00,
2013-07-10 07:01:00,63.1,58.9,30.40,East,100,3.5,3.5,86,0.00,CLR,FEW,0.00,WeatherDisplay:10.37,2013-07-10 06:01:00,
2013-07-10 07:06:00,63.7,59.4,30.40,WNW,302,4.6,4.6,86,0.00,CLR,FEW,0.00,WeatherDisplay:10.37,2013-07-10 06:06:00,
2013-07-10 07:11:00,64.6,60.0,30.40,East,100,0.0,1.4,85,0.00,CLR,FEW,0.00,WeatherDisplay:10.37,2013-07-10 06:11:00,
2013-07-10 07:16:00,64.9,60.0,30.40,SE,145,2.3,2.3,84,0.00,CLR,FEW,0.00,WeatherDisplay:10.37,2013-07-10 06:16:00,
2013-07-10 07:21:00,65.7,60.4,30.40,East,100,3.5,3.5,83,0.00,CLR,FEW,0.00,WeatherDisplay:10.37,2013-07-10 06:21:00,
2013-07-10 07:26:00,65.8,60.2,30.40,East,100,4.6,4.6,82,0.00,CLR,FEW,0.00,WeatherDisplay:10.37,2013-07-10 06:26:00,
2013-07-10 07:31:00,66.4,60.4,30.40,WSW,258,3.5,3.5,81,0.00,CLR,FEW,0.00,WeatherDisplay:10.37,2013-07-10 06:31:00,
2013-07-10 07:36:00,66.7,60.7,30.40,ENE,78,3.5,3.5,81,0.00,CLR,FEW,0.00,WeatherDisplay:10.37,2013-07-10 06:36:00,
2013-07-10 07:41:00,67.3,60.5,30.40,West,280,5.4,5.4,79,0.00,CLR,FEW,0.00,WeatherDisplay:10.37,2013-07-10 06:41:00,
2013-07-10 07:46:00,67.6,60.9,30.40,WNW,302,3.5,3.5,79,0.00,CLR,FEW,0.00,WeatherDisplay:10.37,2013-07-10 06:46:00,
2013-07-10 07:52:00,68.0,60.5,30.40,East,100,3.5,3.5,77,0.00,CLR,FEW,0.00,WeatherDisplay:10.37,2013-07-10 06:52:00,
2013-07-10 07:57:00,68.5,60.7,30.40,NW,325,4.6,4.6,76,0.00,CLR,FEW,0.00,WeatherDisplay:10.37,2013-07-10 06:57:00,
2013-07-10 08:02:00,68.5,60.3,30.41,East,100,3.5,3.5,75,0.00,FEW,,0.00,WeatherDisplay:10.37,2013-07-10 07:02:00,
2013-07-10 08:07:00,68.7,60.1,30.41,East,100,2.3,2.9,74,0.00,FEW,,0.00,WeatherDisplay:10.37,2013-07-10 07:07:00,
2013-07-10 08:12:00,68.9,60.3,30.41,NW,325,3.5,3.5,74,0.00,FEW,,0.00,WeatherDisplay:10.37,2013-07-10 07:12:00,
2013-07-10 08:17:00,69.1,60.4,30.41,NW,325,4.6,4.6,74,0.00,FEW,,0.00,WeatherDisplay:10.37,2013-07-10 07:17:00,
2013-07-10 08:22:00,69.1,60.4,30.42,WNW,302,5.1,5.1,74,0.00,FEW,,0.00,WeatherDisplay:10.37,2013-07-10 07:22:00,
2013-07-10 08:27:00,69.3,60.6,30.42,West,280,5.8,5.8,74,0.00,FEW,,0.00,WeatherDisplay:10.37,2013-07-10 07:27:00,
2013-07-10 08:32:00,69.3,60.6,30.42,SE,145,2.3,2.4,74,0.00,FEW,,0.00,WeatherDisplay:10.37,2013-07-10 07:32:00,
2013-07-10 08:37:00,69.3,60.6,30.42,WNW,302,1.2,1.4,74,0.00,FEW,,0.00,WeatherDisplay:10.37,2013-07-10 07:37:00,
2013-07-10 08:42:00,69.6,60.6,30.43,NNW,348,5.0,5.0,73,0.00,FEW,,0.00,WeatherDisplay:10.37,2013-07-10 07:42:00,
2013-07-10 08:47:00,69.4,60.4,30.43,ENE,78,1.2,2.4,73,0.00,FEW,,0.00,WeatherDisplay:10.37,2013-07-10 07:47:00,
2013-07-10 08:52:00,69.8,60.4,30.43,NW,325,4.6,4.6,72,0.00,FEW,,0.00,WeatherDisplay:10.37,2013-07-10 07:52:00,
2013-07-10 08:57:00,70.0,60.5,30.43,NW,325,3.5,3.5,72,0.00,FEW,,0.00,WeatherDisplay:10.37,2013-07-10 07:57:00,
2013-07-10 09:02:00,69.8,60.0,30.42,WNW,302,9.2,9.2,71,0.00,FEW,,0.00,WeatherDisplay:10.37,2013-07-10 08:02:00,
2013-07-10 09:07:00,69.8,60.4,30.42,ENE,78,7.2,7.2,72,0.00,FEW,,0.00,WeatherDisplay:10.37,2013-07-10 08:07:00,
2013-07-10 09:12:00,69.8,60.4,30.42,East,100,5.9,5.9,72,0.00,FEW,,0.00,WeatherDisplay:10.37,2013-07-10 08:12:00,
2013-07-10 09:17:00,69.8,60.4,30.42,NW,325,6.0,6.0,72,0.00,FEW,,0.00,WeatherDisplay:10.37,2013-07-10 08:17:00,
2013-07-10 09:22:00,69.4,60.4,30.44,WNW,302,3.5,3.5,73,0.00,FEW,,0.00,WeatherDisplay:10.37,2013-07-10 08:22:00,
2013-07-10 09:27:00,69.4,60.4,30.44,ENE,78,3.5,3.5,73,0.00,FEW,,0.00,WeatherDisplay:10.37,2013-07-10 08:27:00,
2013-07-10 09:32:00,69.8,60.4,30.44,WNW,302,4.7,4.7,72,0.00,FEW,,0.00,WeatherDisplay:10.37,2013-07-10 08:32:00,
2013-07-10 09:37:00,70.2,61.1,30.44,WNW,302,5.8,5.8,73,0.00,FEW,,0.00,WeatherDisplay:10.37,2013-07-10 08:37:00,
2013-07-10 09:42:00,70.0,60.9,30.44,NW,325,6.2,6.2,73,0.00,FEW,,0.00,WeatherDisplay:10.37,2013-07-10 08:42:00,
2013-07-10 09:47:00,70.0,60.9,30.44,WNW,302,3.5,3.5,73,0.00,FEW,,0.00,WeatherDisplay:10.37,2013-07-10 08:47:00,
2013-07-10 09:52:00,70.0,60.9,30.44,ENE,78,5.8,5.8,73,0.00,FEW,,0.00,WeatherDisplay:10.37,2013-07-10 08:52:00,
2013-07-10 09:57:00,70.0,60.9,30.44,NW,325,2.3,3.4,73,0.00,FEW,,0.00,WeatherDisplay:10.37,2013-07-10 08:57:00,
2013-07-10 10:02:00,70.3,61.3,30.44,ENE,78,4.6,4.6,73,0.00,SCT,FEW,0.00,WeatherDisplay:10.37,2013-07-10 09:02:00,
2013-07-10 10:07:00,70.3,61.3,30.44,West,280,4.6,4.6,73,0.00,SCT,FEW,0.00,WeatherDisplay:10.37,2013-07-10 09:07:00,
2013-07-10 10:12:00,70.2,61.1,30.44,NW,325,6.9,6.9,73,0.00,SCT,FEW,0.00,WeatherDisplay:10.37,2013-07-10 09:12:00,
2013-07-10 10:17:00,70.5,61.4,30.44,WNW,302,4.6,4.6,73,0.00,SCT,FEW,0.00,WeatherDisplay:10.37,2013-07-10 09:17:00,
2013-07-10 10:22:00,70.7,61.6,30.45,West,280,5.8,5.8,73,0.00,SCT,FEW,0.00,WeatherDisplay:10.37,2013-07-10 09:22:00,
2013-07-10 10:27:00,70.7,61.6,30.45,West,280,5.8,5.8,73,0.00,SCT,FEW,0.00,WeatherDisplay:10.37,2013-07-10 09:27:00,
2013-07-10 10:32:00,70.9,61.8,30.45,North,10,3.5,3.5,73,0.00,SCT,FEW,0.00,WeatherDisplay:10.37,2013-07-10 09:32:00,
2013-07-10 10:37:00,71.1,62.0,30.45,East,100,5.8,5.8,73,0.00,SCT,FEW,0.00,WeatherDisplay:10.37,2013-07-10 09:37:00,
2013-07-10 10:42:00,71.4,62.3,30.46,NW,325,3.6,3.6,73,0.00,SCT,FEW,0.00,WeatherDisplay:10.37,2013-07-10 09:42:00,
2013-07-10 10:47:00,71.2,61.7,30.46,NW,325,4.6,4.6,72,0.00,SCT,FEW,0.00,WeatherDisplay:10.37,2013-07-10 09:47:00,
2013-07-10 10:52:00,71.4,61.9,30.46,East,100,4.6,4.6,72,0.00,SCT,FEW,0.00,WeatherDisplay:10.37,2013-07-10 09:52:00,
2013-07-10 10:57:00,71.4,61.9,30.46,NW,325,8.1,8.1,72,0.00,SCT,FEW,0.00,WeatherDisplay:10.37,2013-07-10 09:57:00,
2013-07-10 11:02:00,71.4,62.3,30.46,ENE,78,5.1,5.1,73,0.00,FEW,,0.00,WeatherDisplay:10.37,2013-07-10 10:02:00,
2013-07-10 11:07:00,71.4,61.9,30.46,East,100,5.1,5.1,72,0.00,FEW,,0.00,WeatherDisplay:10.37,2013-07-10 10:07:00,
2013-07-10 11:12:00,71.2,61.7,30.46,ENE,78,9.2,9.2,72,0.00,FEW,,0.00,WeatherDisplay:10.37,2013-07-10 10:12:00,
2013-07-10 11:17:00,71.4,61.5,30.46,North,10,3.5,4.0,71,0.00,FEW,,0.00,WeatherDisplay:10.37,2013-07-10 10:17:00,
2013-07-10 11:22:00,71.1,61.6,30.46,ESE,122,6.9,6.9,72,0.00,FEW,,0.00,WeatherDisplay:10.37,2013-07-10 10:22:00,
2013-07-10 11:27:00,71.1,61.6,30.46,East,100,2.3,4.0,72,0.00,FEW,,0.00,WeatherDisplay:10.37,2013-07-10 10:27:00,
2013-07-10 11:32:00,71.4,62.3,30.46,NW,325,4.6,4.6,73,0.00,FEW,,0.00,WeatherDisplay:10.37,2013-07-10 10:32:00,
2013-07-10 11:37:00,71.8,61.9,30.46,East,100,8.1,8.1,71,0.00,FEW,,0.00,WeatherDisplay:10.37,2013-07-10 10:37:00,
2013-07-10 11:42:00,71.4,61.5,30.48,West,280,5.8,5.8,71,0.00,FEW,,0.00,WeatherDisplay:10.37,2013-07-10 10:42:00,
2013-07-10 11:47:00,71.2,62.1,30.48,NW,325,2.3,3.5,73,0.00,FEW,,0.00,WeatherDisplay:10.37,2013-07-10 10:47:00,
2013-07-10 11:52:00,71.6,62.1,30.48,East,100,5.8,5.8,72,0.00,FEW,,0.00,WeatherDisplay:10.37,2013-07-10 10:52:00,
2013-07-10 11:57:00,71.4,61.9,30.48,ENE,78,5.8,5.8,72,0.00,FEW,,0.00,WeatherDisplay:10.37,2013-07-10 10:57:00,
2013-07-10 12:02:00,71.6,62.5,30.48,ENE,78,4.0,4.0,73,0.00,FEW,,0.00,WeatherDisplay:10.37,2013-07-10 11:02:00,
2013-07-10 12:07:00,71.6,62.5,30.48,ENE,78,3.5,3.5,73,0.00,FEW,,0.00,WeatherDisplay:10.37,2013-07-10 11:07:00,
2013-07-10 12:12:00,71.4,61.9,30.48,ENE,78,3.5,3.6,72,0.00,FEW,,0.00,WeatherDisplay:10.37,2013-07-10 11:12:00,
2013-07-10 12:17:00,71.4,61.9,30.48,ENE,78,6.9,6.9,72,0.00,FEW,,0.00,WeatherDisplay:10.37,2013-07-10 11:17:00,
2013-07-10 12:22:00,71.4,61.9,30.48,WNW,302,3.5,3.5,72,0.00,FEW,,0.00,WeatherDisplay:10.37,2013-07-10 11:22:00,
2013-07-10 12:27:00,70.9,61.4,30.48,West,280,3.7,3.7,72,0.00,FEW,,0.00,WeatherDisplay:10.37,2013-07-10 11:27:00,
2013-07-10 12:32:00,70.7,61.2,30.48,East,100,5.8,5.8,72,0.00,FEW,,0.00,WeatherDisplay:10.37,2013-07-10 11:32:00,
2013-07-10 12:37:00,70.9,61.8,30.48,West,280,4.2,4.2,73,0.00,FEW,,0.00,WeatherDisplay:10.37,2013-07-10 11:37:00,
2013-07-10 12:42:00,70.5,61.4,30.48,WNW,302,5.8,5.8,73,0.00,FEW,,0.00,WeatherDisplay:10.37,2013-07-10 11:42:00,
2013-07-10 12:47:00,70.5,61.8,30.48,ENE,78,6.9,6.9,74,0.00,FEW,,0.00,WeatherDisplay:10.37,2013-07-10 11:47:00,
2013-07-10 12:52:00,70.7,61.6,30.48,WNW,302,5.8,5.8,73,0.00,FEW,,0.00,WeatherDisplay:10.37,2013-07-10 11:52:00,
2013-07-10 12:57:00,70.9,61.8,30.48,ENE,78,4.6,4.6,73,0.00,FEW,,0.00,WeatherDisplay:10.37,2013-07-10 11:57:00,
2013-07-10 13:02:00,71.1,62.0,30.48,ENE,78,6.9,6.9,73,0.00,BKN,FEW,0.00,WeatherDisplay:10.37,2013-07-10 12:02:00,
2013-07-10 13:07:00,71.4,62.3,30.48,ENE,78,3.5,3.9,73,0.00,BKN,FEW,0.00,WeatherDisplay:10.37,2013-07-10 12:07:00,
2013-07-10 13:12:00,71.4,61.9,30.48,East,100,4.6,4.6,72,0.00,BKN,FEW,0.00,WeatherDisplay:10.37,2013-07-10 12:12:00,
2013-07-10 13:18:00,70.7,61.2,30.48,ENE,78,8.3,8.3,72,0.00,BKN,FEW,0.00,WeatherDisplay:10.37,2013-07-10 12:18:00,
2013-07-10 13:23:00,70.7,61.2,30.48,ENE,78,3.5,3.9,72,0.00,BKN,FEW,0.00,WeatherDisplay:10.37,2013-07-10 12:23:00,
2013-07-10 13:28:00,70.7,61.6,30.48,ENE,78,5.8,5.8,73,0.00,BKN,FEW,0.00,WeatherDisplay:10.37,2013-07-10 12:28:00,
2013-07-10 13:33:00,70.9,61.8,30.48,ENE,78,5.8,5.8,73,0.00,BKN,FEW,0.00,WeatherDisplay:10.37,2013-07-10 12:33:00,
2013-07-10 13:38:00,71.2,62.1,30.48,ENE,78,6.9,6.9,73,0.00,BKN,FEW,0.00,WeatherDisplay:10.37,2013-07-10 12:38:00,
2013-07-10 13:43:00,71.6,62.1,30.48,NW,325,6.9,6.9,72,0.00,BKN,FEW,0.00,WeatherDisplay:10.37,2013-07-10 12:43:00,
2013-07-10 13:48:00,71.4,62.3,30.48,ENE,78,6.9,6.9,73,0.00,BKN,FEW,0.00,WeatherDisplay:10.37,2013-07-10 12:48:00,
2013-07-10 13:53:00,71.2,61.7,30.48,ENE,78,5.8,5.8,72,0.00,BKN,FEW,0.00,WeatherDisplay:10.37,2013-07-10 12:53:00,
2013-07-10 13:58:00,71.2,62.1,30.48,ENE,78,6.8,6.8,73,0.00,BKN,FEW,0.00,WeatherDisplay:10.37,2013-07-10 12:58:00,
2013-07-10 14:03:00,71.2,62.1,30.49,East,100,6.9,6.9,73,0.00,SCT,FEW,0.00,WeatherDisplay:10.37,2013-07-10 13:03:00,
2013-07-10 14:08:00,71.1,61.6,30.49,East,100,6.9,6.9,72,0.00,SCT,FEW,0.00,WeatherDisplay:10.37,2013-07-10 13:08:00,
2013-07-10 14:13:00,71.1,61.6,30.49,NNW,348,9.2,9.2,72,0.00,SCT,FEW,0.00,WeatherDisplay:10.37,2013-07-10 13:13:00,
2013-07-10 14:18:00,70.9,61.8,30.49,NW,325,4.6,4.6,73,0.00,SCT,FEW,0.00,WeatherDisplay:10.37,2013-07-10 13:18:00,
2013-07-10 14:23:00,71.1,62.0,30.49,East,100,3.5,3.5,73,0.00,SCT,FEW,0.00,WeatherDisplay:10.37,2013-07-10 13:23:00,
2013-07-10 14:28:00,71.1,61.6,30.49,WNW,302,5.8,5.8,72,0.00,SCT,FEW,0.00,WeatherDisplay:10.37,2013-07-10 13:28:00,
2013-07-10 14:33:00,70.9,61.8,30.49,East,100,5.8,5.8,73,0.00,SCT,FEW,0.00,WeatherDisplay:10.37,2013-07-10 13:33:00,
2013-07-10 14:38:00,70.9,61.8,30.49,NW,325,4.6,4.6,73,0.00,SCT,FEW,0.00,WeatherDisplay:10.37,2013-07-10 13:38:00,
2013-07-10 14:43:00,71.2,62.1,30.48,ENE,78,3.5,3.5,73,0.00,SCT,FEW,0.00,WeatherDisplay:10.37,2013-07-10 13:43:00,
2013-07-10 14:48:00,70.9,61.8,30.48,NW,325,3.7,3.7,73,0.00,SCT,FEW,0.00,WeatherDisplay:10.37,2013-07-10 13:48:00,
2013-07-10 14:53:00,70.9,61.8,30.48,East,100,5.1,5.1,73,0.00,SCT,FEW,0.00,WeatherDisplay:10.37,2013-07-10 13:53:00,
2013-07-10 14:58:00,71.1,62.4,30.48,ENE,78,6.9,6.9,74,0.00,SCT,FEW,0.00,WeatherDisplay:10.37,2013-07-10 13:58:00,
2013-07-10 15:03:00,71.2,62.5,30.49,WNW,302,3.5,3.5,74,0.00,SCT,FEW,0.00,WeatherDisplay:10.37,2013-07-10 14:03:00,
2013-07-10 15:08:00,71.4,62.3,30.49,SE,145,4.6,4.6,73,0.00,SCT,FEW,0.00,WeatherDisplay:10.37,2013-07-10 14:08:00,
2013-07-10 15:13:00,71.6,62.5,30.49,ENE,78,4.6,4.6,73,0.00,SCT,FEW,0.00,WeatherDisplay:10.37,2013-07-10 14:13:00,
2013-07-10 15:18:00,71.4,62.3,30.49,North,10,3.5,3.7,73,0.00,SCT,FEW,0.00,WeatherDisplay:10.37,2013-07-10 14:18:00,
2013-07-10 15:23:00,71.2,62.1,30.49,ENE,78,4.8,4.8,73,0.00,SCT,FEW,0.00,WeatherDisplay:10.37,2013-07-10 14:23:00,
2013-07-10 15:28:00,71.1,62.0,30.49,West,280,2.3,2.9,73,0.00,SCT,FEW,0.00,WeatherDisplay:10.37,2013-07-10 14:28:00,
2013-07-10 15:33:00,71.4,62.3,30.49,ENE,78,2.3,3.0,73,0.00,SCT,FEW,0.00,WeatherDisplay:10.37,2013-07-10 14:33:00,
2013-07-10 15:38:00,71.2,62.1,30.49,East,100,5.8,5.8,73,0.00,SCT,FEW,0.00,WeatherDisplay:10.37,2013-07-10 14:38:00,
2013-07-10 15:43:00,71.6,62.5,30.48,ENE,78,5.8,5.8,73,0.00,SCT,FEW,0.00,WeatherDisplay:10.37,2013-07-10 14:43:00,
2013-07-10 15:48:00,71.4,62.3,30.48,WSW,258,3.5,3.5,73,0.00,SCT,FEW,0.00,WeatherDisplay:10.37,2013-07-10 14:48:00,
2013-07-10 15:53:00,71.4,62.3,30.48,NW,325,6.9,6.9,73,0.00,SCT,FEW,0.00,WeatherDisplay:10.37,2013-07-10 14:53:00,
2013-07-10 15:58:00,71.2,62.1,30.48,East,100,5.8,5.8,73,0.00,SCT,FEW,0.00,WeatherDisplay:10.37,2013-07-10 14:58:00,
2013-07-10 16:03:00,71.2,62.1,30.48,NW,325,5.8,5.8,73,0.00,FEW,,0.00,WeatherDisplay:10.37,2013-07-10 15:03:00,
2013-07-10 16:08:00,71.4,62.3,30.48,ESE,122,5.8,5.8,73,0.00,FEW,,0.00,WeatherDisplay:10.37,2013-07-10 15:08:00,
2013-07-10 16:13:00,71.4,62.3,30.48,ENE,78,3.5,3.5,73,0.00,FEW,,0.00,WeatherDisplay:10.37,2013-07-10 15:13:00,
2013-07-10 16:18:00,71.4,61.9,30.48,NW,325,4.6,4.6,72,0.00,FEW,,0.00,WeatherDisplay:10.37,2013-07-10 15:18:00,
2013-07-10 16:23:00,71.4,61.5,30.47,WNW,302,4.6,4.6,71,0.00,FEW,,0.00,WeatherDisplay:10.37,2013-07-10 15:23:00,
2013-07-10 16:28:00,71.4,61.9,30.47,ENE,78,4.6,4.6,72,0.00,FEW,,0.00,WeatherDisplay:10.37,2013-07-10 15:28:00,
2013-07-10 16:33:00,71.4,61.9,30.47,ENE,78,6.9,6.9,72,0.00,FEW,,0.00,WeatherDisplay:10.37,2013-07-10 15:33:00,
2013-07-10 16:38:00,71.8,62.3,30.47,West,280,5.8,5.8,72,0.00,FEW,,0.00,WeatherDisplay:10.37,2013-07-10 15:38:00,
2013-07-10 16:43:00,71.6,62.1,30.47,ENE,78,3.5,3.6,72,0.00,FEW,,0.00,WeatherDisplay:10.37,2013-07-10 15:43:00,
2013-07-10 16:48:00,71.4,61.9,30.47,NW,325,6.9,6.9,72,0.00,FEW,,0.00,WeatherDisplay:10.37,2013-07-10 15:48:00,
2013-07-10 16:53:00,71.1,61.6,30.47,NW,325,5.8,5.8,72,0.00,FEW,,0.00,WeatherDisplay:10.37,2013-07-10 15:53:00,
2013-07-10 16:58:00,70.9,61.4,30.47,East,100,6.9,6.9,72,0.00,FEW,,0.00,WeatherDisplay:10.37,2013-07-10 15:58:00,
2013-07-10 17:03:00,70.9,61.4,30.46,WNW,302,5.0,5.0,72,0.00,FEW,,0.00,WeatherDisplay:10.37,2013-07-10 16:03:00,
2013-07-10 17:08:00,70.9,61.4,30.46,ENE,78,5.8,5.8,72,0.00,FEW,,0.00,WeatherDisplay:10.37,2013-07-10 16:08:00,
2013-07-10 17:13:00,71.1,61.6,30.46,East,100,5.8,5.8,72,0.00,FEW,,0.00,WeatherDisplay:10.37,2013-07-10 16:13:00,
2013-07-10 17:18:00,70.9,61.4,30.46,ENE,78,4.6,4.6,72,0.00,FEW,,0.00,WeatherDisplay:10.37,2013-07-10 16:18:00,
2013-07-10 17:23:00,70.7,61.2,30.46,NW,325,4.8,4.8,72,0.00,FEW,,0.00,WeatherDisplay:10.37,2013-07-10 16:23:00,
2013-07-10 17:28:00,70.5,61.1,30.46,WNW,302,3.5,3.5,72,0.00,FEW,,0.00,WeatherDisplay:10.37,2013-07-10 16:28:00,
2013-07-10 17:33:00,70.7,61.2,30.46,East,100,4.1,4.1,72,0.00,FEW,,0.00,WeatherDisplay:10.37,2013-07-10 16:33:00,
2013-07-10 17:38:00,70.7,61.2,30.46,East,100,5.8,5.8,72,0.00,FEW,,0.00,WeatherDisplay:10.37,2013-07-10 16:38:00,
2013-07-10 17:43:00,70.7,61.2,30.44,ENE,78,4.6,4.6,72,0.00,FEW,,0.00,WeatherDisplay:10.37,2013-07-10 16:43:00,
2013-07-10 17:48:00,70.5,61.1,30.44,East,100,6.9,6.9,72,0.00,FEW,,0.00,WeatherDisplay:10.37,2013-07-10 16:48:00,
2013-07-10 17:53:00,70.7,61.2,30.44,West,280,4.0,4.0,72,0.00,FEW,,0.00,WeatherDisplay:10.37,2013-07-10 16:53:00,
2013-07-10 17:59:00,70.5,60.7,30.44,East,100,6.9,6.9,71,0.00,FEW,,0.00,WeatherDisplay:10.37,2013-07-10 16:59:00,
2013-07-10 18:04:00,70.7,61.2,30.45,East,100,5.8,5.8,72,0.00,FEW,,0.00,WeatherDisplay:10.37,2013-07-10 17:04:00,
2013-07-10 18:09:00,70.3,60.9,30.45,ENE,78,3.5,3.5,72,0.00,FEW,,0.00,WeatherDisplay:10.37,2013-07-10 17:09:00,
2013-07-10 18:14:00,70.3,60.9,30.45,East,100,2.3,3.3,72,0.00,FEW,,0.00,WeatherDisplay:10.37,2013-07-10 17:14:00,
2013-07-10 18:19:00,70.2,60.7,30.45,East,100,6.9,6.9,72,0.00,FEW,,0.00,WeatherDisplay:10.37,2013-07-10 17:19:00,
2013-07-10 18:24:00,70.2,60.7,30.44,ENE,78,5.0,5.0,72,0.00,FEW,,0.00,WeatherDisplay:10.37,2013-07-10 17:24:00,
2013-07-10 18:29:00,70.3,60.9,30.44,ENE,78,3.5,3.6,72,0.00,FEW,,0.00,WeatherDisplay:10.37,2013-07-10 17:29:00,
2013-07-10 18:34:00,70.2,61.1,30.44,ENE,78,5.8,5.8,73,0.00,FEW,,0.00,WeatherDisplay:10.37,2013-07-10 17:34:00,
2013-07-10 18:39:00,70.2,61.1,30.44,WNW,302,8.1,8.1,73,0.00,FEW,,0.00,WeatherDisplay:10.37,2013-07-10 17:39:00,
2013-07-10 18:44:00,70.2,61.1,30.43,East,100,5.8,5.8,73,0.00,FEW,,0.00,WeatherDisplay:10.37,2013-07-10 17:44:00,
2013-07-10 18:49:00,70.3,61.3,30.43,East,100,3.5,4.0,73,0.00,FEW,,0.00,WeatherDisplay:10.37,2013-07-10 17:49:00,
2013-07-10 18:54:00,70.3,61.3,30.43,ENE,78,4.6,4.6,73,0.00,FEW,,0.00,WeatherDisplay:10.37,2013-07-10 17:54:00,
2013-07-10 18:59:00,70.2,61.1,30.43,SW,235,1.4,2.8,73,0.00,FEW,,0.00,WeatherDisplay:10.37,2013-07-10 17:59:00,
2013-07-10 19:04:00,70.3,61.3,30.43,WNW,302,3.5,3.5,73,0.00,FEW,,0.00,WeatherDisplay:10.37,2013-07-10 18:04:00,
2013-07-10 19:09:00,70.3,61.3,30.43,ENE,78,3.6,3.6,73,0.00,FEW,,0.00,WeatherDisplay:10.37,2013-07-10 18:09:00,
2013-07-10 19:14:00,69.8,61.1,30.43,NW,325,3.5,3.5,74,0.00,FEW,,0.00,WeatherDisplay:10.37,2013-07-10 18:14:00,
2013-07-10 19:19:00,69.6,61.0,30.43,East,100,4.6,4.6,74,0.00,FEW,,0.00,WeatherDisplay:10.37,2013-07-10 18:19:00,
2013-07-10 19:24:00,69.4,60.8,30.43,ENE,78,3.6,3.6,74,0.00,FEW,,0.00,WeatherDisplay:10.37,2013-07-10 18:24:00,
2013-07-10 19:29:00,69.4,60.8,30.43,NW,325,3.5,3.5,74,0.00,FEW,,0.00,WeatherDisplay:10.37,2013-07-10 18:29:00,
2013-07-10 19:34:00,69.6,61.0,30.43,ENE,78,3.5,3.5,74,0.00,FEW,,0.00,WeatherDisplay:10.37,2013-07-10 18:34:00,
2013-07-10 19:39:00,69.4,60.8,30.43,East,100,2.5,2.5,74,0.00,FEW,,0.00,WeatherDisplay:10.37,2013-07-10 18:39:00,
2013-07-10 19:44:00,69.3,60.6,30.42,ENE,78,5.8,5.8,74,0.00,FEW,,0.00,WeatherDisplay:10.37,2013-07-10 18:44:00,
2013-07-10 19:49:00,69.3,60.6,30.42,ENE,78,4.6,4.6,74,0.00,FEW,,0.00,WeatherDisplay:10.37,2013-07-10 18:49:00,
2013-07-10 19:54:00,68.9,60.3,30.42,ENE,78,4.6,4.6,74,0.00,FEW,,0.00,WeatherDisplay:10.37,2013-07-10 18:54:00,
2013-07-10 19:59:00,68.9,60.3,30.42,ENE,78,3.5,3.5,74,0.00,FEW,,0.00,WeatherDisplay:10.37,2013-07-10 18:59:00,
2013-07-10 20:04:00,68.9,60.6,30.42,East,100,2.3,2.4,75,0.00,FEW,,0.00,WeatherDisplay:10.37,2013-07-10 19:04:00,
2013-07-10 20:09:00,68.7,60.5,30.42,West,280,2.3,2.3,75,0.00,FEW,,0.00,WeatherDisplay:10.37,2013-07-10 19:09:00,
2013-07-10 20:14:00,68.5,60.3,30.42,ESE,122,2.3,2.3,75,0.00,FEW,,0.00,WeatherDisplay:10.37,2013-07-10 19:14:00,
2013-07-10 20:19:00,68.4,60.1,30.42,WNW,302,2.3,2.3,75,0.00,FEW,,0.00,WeatherDisplay:10.37,2013-07-10 19:19:00,
2013-07-10 20:24:00,68.5,60.3,30.43,ENE,78,4.6,4.6,75,0.00,FEW,,0.00,WeatherDisplay:10.37,2013-07-10 19:24:00,
2013-07-10 20:29:00,68.2,60.0,30.43,ENE,78,2.3,2.5,75,0.00,FEW,,0.00,WeatherDisplay:10.37,2013-07-10 19:29:00,
2013-07-10 20:34:00,68.0,60.2,30.43,ENE,78,4.6,4.6,76,0.00,FEW,,0.00,WeatherDisplay:10.37,2013-07-10 19:34:00,
2013-07-10 20:39:00,68.0,60.2,30.43,ENE,78,3.5,3.5,76,0.00,FEW,,0.00,WeatherDisplay:10.37,2013-07-10 19:39:00,
2013-07-10 20:44:00,67.8,60.0,30.42,WNW,302,4.6,4.6,76,0.00,FEW,,0.00,WeatherDisplay:10.37,2013-07-10 19:44:00,
2013-07-10 20:49:00,67.8,60.0,30.42,East,100,1.2,2.3,76,0.00,FEW,,0.00,WeatherDisplay:10.37,2013-07-10 19:49:00,
2013-07-10 20:54:00,67.6,59.8,30.42,East,100,3.5,3.5,76,0.00,FEW,,0.00,WeatherDisplay:10.37,2013-07-10 19:54:00,
2013-07-10 20:59:00,67.3,59.5,30.42,WSW,258,3.5,3.5,76,0.00,FEW,,0.00,WeatherDisplay:10.37,2013-07-10 19:59:00,
2013-07-10 21:04:00,67.3,59.5,30.42,WNW,302,3.5,3.5,76,0.00,FEW,,0.00,WeatherDisplay:10.37,2013-07-10 20:04:00,
2013-07-10 21:09:00,66.7,58.9,30.42,ENE,78,3.5,3.5,76,0.00,FEW,,0.00,WeatherDisplay:10.37,2013-07-10 20:09:00,
2013-07-10 21:14:00,66.7,59.3,30.42,East,100,4.6,4.6,77,0.00,FEW,,0.00,WeatherDisplay:10.37,2013-07-10 20:14:00,
2013-07-10 21:19:00,66.6,59.1,30.41,ENE,78,4.7,4.7,77,0.00,FEW,,0.00,WeatherDisplay:10.37,2013-07-10 20:19:00,
2013-07-10 21:24:00,66.2,59.1,30.41,East,100,2.8,2.8,78,0.00,FEW,,0.00,WeatherDisplay:10.37,2013-07-10 20:24:00,
2013-07-10 21:29:00,65.8,58.8,30.41,NW,325,2.7,2.7,78,0.00,FEW,,0.00,WeatherDisplay:10.37,2013-07-10 20:29:00,
2013-07-10 21:34:00,65.7,59.0,30.41,NW,325,2.3,2.3,79,0.00,FEW,,0.00,WeatherDisplay:10.37,2013-07-10 20:34:00,
2013-07-10 21:39:00,65.3,59.0,30.41,NW,325,2.7,2.7,80,0.00,FEW,,0.00,WeatherDisplay:10.37,2013-07-10 20:39:00,
2013-07-10 21:44:00,65.1,58.8,30.41,East,100,3.5,3.5,80,0.00,FEW,,0.00,WeatherDisplay:10.37,2013-07-10 20:44:00,
2013-07-10 21:49:00,64.9,59.0,30.41,ENE,78,0.0,1.3,81,0.00,FEW,,0.00,WeatherDisplay:10.37,2013-07-10 20:49:00,
2013-07-10 21:55:00,64.6,58.6,30.41,SW,235,1.2,1.4,81,0.00,FEW,,0.00,WeatherDisplay:10.37,2013-07-10 20:55:00,
2013-07-10 22:00:00,64.6,59.0,30.40,NW,325,2.3,2.3,82,0.00,FEW,,0.00,WeatherDisplay:10.37,2013-07-10 21:00:00,
2013-07-10 22:05:00,64.4,58.8,30.40,SE,145,2.3,2.3,82,0.00,FEW,,0.00,WeatherDisplay:10.37,2013-07-10 21:05:00,
2013-07-10 22:10:00,64.0,58.8,30.40,East,100,3.5,3.5,83,0.00,FEW,,0.00,WeatherDisplay:10.37,2013-07-10 21:10:00,
2013-07-10 22:15:00,64.0,58.8,30.40,ESE,122,1.2,1.2,83,0.00,FEW,,0.00,WeatherDisplay:10.37,2013-07-10 21:15:00,
2013-07-10 22:20:00,63.9,58.6,30.41,East,100,1.2,1.2,83,0.00,FEW,,0.00,WeatherDisplay:10.37,2013-07-10 21:20:00,
2013-07-10 22:25:00,63.5,58.9,30.41,NW,325,1.2,1.2,85,0.00,FEW,,0.00,WeatherDisplay:10.37,2013-07-10 21:25:00,
2013-07-10 22:30:00,63.0,58.7,30.41,NW,325,2.3,2.3,86,0.00,FEW,,0.00,WeatherDisplay:10.37,2013-07-10 21:30:00,
2013-07-10 22:35:00,63.1,58.9,30.41,NW,325,2.3,2.3,86,0.00,FEW,,0.00,WeatherDisplay:10.37,2013-07-10 21:35:00,
2013-07-10 22:40:00,62.8,58.5,30.40,East,100,1.7,1.7,86,0.00,FEW,,0.00,WeatherDisplay:10.37,2013-07-10 21:40:00,
2013-07-10 22:45:00,62.8,58.5,30.40,NW,325,2.3,2.3,86,0.00,FEW,,0.00,WeatherDisplay:10.37,2013-07-10 21:45:00,
2013-07-10 22:50:00,62.8,58.5,30.40,NW,325,2.7,2.7,86,0.00,FEW,,0.00,WeatherDisplay:10.37,2013-07-10 21:50:00,
2013-07-10 22:55:00,62.8,58.5,30.40,NW,325,1.3,1.3,86,0.00,FEW,,0.00,WeatherDisplay:10.37,2013-07-10 21:55:00,
2013-07-10 23:00:00,62.8,58.5,30.40,NW,325,1.2,1.2,86,0.00,FEW,,0.00,WeatherDisplay:10.37,2013-07-10 22:00:00,
2013-07-10 23:05:00,62.6,58.4,30.40,NW,325,1.2,1.2,86,0.00,FEW,,0.00,WeatherDisplay:10.37,2013-07-10 22:05:00,
2013-07-10 23:10:00,62.4,58.2,30.40,WSW,258,1.2,1.2,86,0.00,FEW,,0.00,WeatherDisplay:10.37,2013-07-10 22:10:00,
2013-07-10 23:15:00,62.4,58.2,30.40,ENE,78,1.2,1.2,86,0.00,FEW,,0.00,WeatherDisplay:10.37,2013-07-10 22:15:00,
2013-07-10 23:20:00,62.4,58.5,30.40,ENE,78,0.0,0.4,87,0.00,FEW,,0.00,WeatherDisplay:10.37,2013-07-10 22:20:00,
2013-07-10 23:25:00,62.4,58.5,30.40,NW,325,0.0,0.2,87,0.00,FEW,,0.00,WeatherDisplay:10.37,2013-07-10 22:25:00,
2013-07-10 23:30:00,62.4,58.5,30.40,NW,325,1.2,1.2,87,0.00,FEW,,0.00,WeatherDisplay:10.37,2013-07-10 22:30:00,
2013-07-10 23:35:00,62.2,58.3,30.40,WNW,302,1.2,1.2,87,0.00,FEW,,0.00,WeatherDisplay:10.37,2013-07-10 22:35:00,
2013-07-10 23:40:00,62.2,58.3,30.40,ENE,78,0.0,0.2,87,0.00,FEW,,0.00,WeatherDisplay:10.37,2013-07-10 22:40:00,
2013-07-10 23:45:00,62.2,58.3,30.40,NW,325,0.0,0.0,87,0.00,FEW,,0.00,WeatherDisplay:10.37,2013-07-10 22:45:00,
2013-07-10 23:50:00,62.1,58.1,30.40,East,100,1.8,1.8,87,0.00,FEW,,0.00,WeatherDisplay:10.37,2013-07-10 22:50:00,
2013-07-10 23:55:00,62.1,58.1,30.40,ENE,78,1.2,1.2,87,0.00,FEW,,0.00,WeatherDisplay:10.37,2013-07-10 22:55:00,